Billings, MT

9:12 AM MDT on August 28, 2016 (GMT -0600)
Billings Logan International

Weather History for KBIL - July, 2013

Change the Weather History Date:

Sunday, July 28, 2013

  Actual Average Record
Temperature  
Mean Temperature 71 °F 74 °F  
Max Temperature 82 °F 89 °F 103 °F (1947)
Min Temperature 60 °F 60 °F 48 °F (1949)
Degree Days  
Heating Degree Days 0 0  
Month to date heating degree days 0 12  
Since 1 June heating degree days 73 108  
Since 1 July heating degree days 0 12  
Cooling Degree Days 6 10  
Month to date cooling degree days 288 228  
Year to date cooling degree days 411 330  
Since 1 June cooling degree days 384 313  
Growing Degree Days 21 (Base 50)    
Moisture  
Dew Point 51 °F    
Average Humidity 56    
Maximum Humidity 78    
Minimum Humidity 33    
Precipitation  
Precipitation 0.04 in 0.03 in 0.21 in (2016)
Month to date precipitation 0.56 1.21  
Year to date precipitation 7.88 9.19  
Snow  
Snow 0.00 in 0.00 in 0.00 in (2002)
Month to date snowfall 0.0 0.0  
Since 1 June snowfall 0.0 0.0  
Since 1 July snowfall 0.0 0.0  
Snow Depth 0.00 in    
Sea Level Pressure  
Sea Level Pressure 29.82 in    
Wind  
Wind Speed 9 mph (ENE)    
Max Wind Speed 28 mph    
Max Gust Speed 34 mph    
Visibility 10 miles    
Events Rain , Thunderstorm    
T = Trace of Precipitation, MM = Missing Value Source: NWS Daily Summary

Daily Weather History Graph

Daily Weather History Graph

Search for Another Location

Airport or City:

Trip Planner

Search our weather history database for the weather conditions in past years. The results will help you decide how hot, cold, wet, or windy it might be!

Date:

Astronomy

Jul. 28, 2013 Rise Set
Actual Time 5:52 AM MDT 8:47 PM MDT
Civil Twilight 5:17 AM MDT 9:22 PM MDT
Nautical Twilight 4:33 AM MDT 10:06 PM MDT
Astronomical Twilight 3:40 AM MDT 10:59 PM MDT
Moon 11:45 PM MDT 1:03 PM MDT
Length of Visible Light 16h 04m
Length of Day
14h 54m
Waning Gibbous, 60% of the Moon is Illuminated
Jul 28
Waning Gibbous
Jul 29
Last Quarter
Aug 6
New
Aug 14
First Quarter
Aug 20
Full

Hourly Weather History & Observations

Time (MDT) Temp. Dew Point Humidity Pressure Visibility Wind Dir Wind Speed Gust Speed Precip Events Conditions
12:53 AM 75.9 °F 46.0 °F 35% 29.77 in 10.0 mi SW 6.9 mph - N/A   Scattered Clouds
1:53 AM 75.9 °F 45.0 °F 33% 29.75 in 10.0 mi SSW 4.6 mph - N/A   Scattered Clouds
2:53 AM 73.0 °F 46.0 °F 38% 29.74 in 10.0 mi West 6.9 mph - N/A   Scattered Clouds
3:53 AM 70.0 °F 46.0 °F 42% 29.75 in 10.0 mi WSW 6.9 mph - N/A   Scattered Clouds
4:53 AM 66.9 °F 48.0 °F 51% 29.76 in 10.0 mi Calm Calm - N/A   Partly Cloudy
5:53 AM 66.9 °F 48.9 °F 52% 29.75 in 10.0 mi Calm Calm - N/A   Partly Cloudy
6:53 AM 64.0 °F 51.1 °F 63% 29.78 in 10.0 mi NE 5.8 mph - N/A   Scattered Clouds
7:53 AM 66.0 °F 51.1 °F 59% 29.81 in 10.0 mi Calm Calm - N/A   Scattered Clouds
8:53 AM 70.0 °F 48.9 °F 47% 29.81 in 10.0 mi East 4.6 mph - N/A   Scattered Clouds
10:53 AM 75.0 °F 51.1 °F 43% 29.80 in 10.0 mi ENE 6.9 mph - N/A   Partly Cloudy
11:53 AM 78.1 °F 51.1 °F 39% 29.81 in 10.0 mi North 8.1 mph - N/A   Partly Cloudy
12:53 PM 81.0 °F 52.0 °F 36% 29.78 in 10.0 mi East 16.1 mph 23.0 mph N/A   Partly Cloudy
1:53 PM 79.0 °F 52.0 °F 39% 29.78 in 10.0 mi ENE 16.1 mph 21.9 mph N/A   Scattered Clouds
2:53 PM 77.0 °F 52.0 °F 42% 29.79 in 10.0 mi NE 11.5 mph - N/A   Mostly Cloudy
3:53 PM 78.1 °F 51.1 °F 39% 29.79 in 10.0 mi East 12.7 mph - N/A   Scattered Clouds
4:53 PM 78.1 °F 53.1 °F 42% 29.78 in 10.0 mi SSE 12.7 mph - N/A   Scattered Clouds
4:55 PM 79.0 °F 53.1 °F 40% 29.88 in 10.0 mi SSE 11.5 mph - N/A   Scattered Clouds
5:53 PM 79.0 °F 48.9 °F 35% 29.78 in 10.0 mi ESE 15.0 mph 24.2 mph N/A   Scattered Clouds
6:53 PM 78.1 °F 50.0 °F 37% 29.79 in 10.0 mi East 15.0 mph - N/A   Scattered Clouds
7:28 PM 70.0 °F 51.1 °F 51% 29.91 in 10.0 mi NNE 12.7 mph - N/A   Scattered Clouds
7:53 PM 70.0 °F 48.9 °F 47% 29.86 in 10.0 mi NNE 16.1 mph 21.9 mph N/A   Scattered Clouds
8:02 PM 70.0 °F 46.9 °F 44% 29.95 in 10.0 mi NNE 15.0 mph - N/A Thunderstorm Thunderstorm
8:29 PM 62.1 °F 55.0 °F 78% 29.98 in 9.0 mi NNW 23.0 mph 27.6 mph N/A Rain , Thunderstorm Light Thunderstorms and Rain
8:53 PM 60.1 °F 55.0 °F 83% 29.91 in 10.0 mi North 17.3 mph - 0.03 in Rain , Thunderstorm Light Thunderstorms and Rain
9:14 PM 60.1 °F 55.0 °F 83% 29.93 in 10.0 mi East 18.4 mph - 0.01 in Rain , Thunderstorm Light Thunderstorms and Rain
9:53 PM 62.1 °F 53.1 °F 72% 29.85 in 10.0 mi East 13.8 mph - 0.01 in   Scattered Clouds
10:53 PM 64.0 °F 51.1 °F 63% 29.84 in 10.0 mi ESE 3.5 mph - N/A   Scattered Clouds
11:53 PM 60.1 °F 53.1 °F 78% 29.86 in 10.0 mi West 8.1 mph - N/A   Scattered Clouds